When you browse on this site, cookies collect data to enhance your experience and personalize the content and advertising you see.
Visit our Privacy Policy to learn more. By continuing to use the site, you agree to this use of cookies and data.
  • In Hungary
  • List of Countries
  • For 7 days
  • Water Temperature
  • Weather Map
  • News
  • Weather Widgets
  • user-avatar
    Login

    Hourly Weather Boxtel

    Today, 26 August, Monday

    Time Temperature Precipitation Wind Pressure Humidity
    00:00 +21°C° 0 mm 2 mps 763 mmHg 65%
    01:00 +21°C° 0 mm 2 mps 763 mmHg 67%
    02:00 +21°C° 0 mm 1 mps 763 mmHg 70%
    03:00 +21°C° 0 mm 1 mps 763 mmHg 73%
    04:00 +21°C° 0 mm 1 mps 763 mmHg 74%
    05:00 +22°C° 0 mm 1 mps 763 mmHg 76%
    06:00 +22°C° 0 mm 1 mps 763 mmHg 77%
    07:00 +24°C° 0 mm 1 mps 763 mmHg 72%
    08:00 +26°C° 0 mm 2 mps 763 mmHg 66%
    09:00 +28°C° 0 mm 2 mps 763 mmHg 61%
    10:00 +29°C° 0 mm 2 mps 763 mmHg 57%
    11:00 +31°C° 0 mm 2 mps 763 mmHg 53%
    12:00 +32°C° 0 mm 2 mps 763 mmHg 50%
    13:00 +32°C° 0 mm 2 mps 762 mmHg 49%
    14:00 +32°C° 0 mm 2 mps 762 mmHg 48%
    15:00 +32°C° 0 mm 2 mps 762 mmHg 47%
    16:00 +31°C° 0 mm 2 mps 761 mmHg 53%
    17:00 +30°C° 0 mm 2 mps 761 mmHg 58%
    18:00 +28°C° 0 mm 2 mps 761 mmHg 63%
    19:00 +27°C° 0.1 mm 2 mps 761 mmHg 67%
    20:00 +26°C° 0.1 mm 2 mps 762 mmHg 71%
    21:00 +25°C° 0.1 mm 2 mps 762 mmHg 74%
    22:00 +24°C° 0.1 mm 2 mps 762 mmHg 77%
    23:00 +24°C° 0.1 mm 2 mps 762 mmHg 80%

    Tomorrow, 27 August, Tuesday

    Time Temperature Precipitation Wind Pressure Humidity
    00:00 +23°C° 0.1 mm 2 mps 761 mmHg 83%
    01:00 +23°C° 0.1 mm 2 mps 761 mmHg 83%
    02:00 +22°C° 0.1 mm 1 mps 761 mmHg 83%
    03:00 +22°C° 0.1 mm 1 mps 761 mmHg 83%
    04:00 +22°C° 0 mm 1 mps 761 mmHg 82%
    05:00 +23°C° 0 mm 1 mps 761 mmHg 81%
    06:00 +23°C° 0 mm 1 mps 761 mmHg 80%
    07:00 +25°C° 0 mm 1 mps 761 mmHg 73%
    08:00 +27°C° 0 mm 1 mps 761 mmHg 66%
    09:00 +29°C° 0 mm 1 mps 761 mmHg 59%
    10:00 +30°C° 0 mm 1 mps 760 mmHg 55%
    11:00 +31°C° 0 mm 1 mps 760 mmHg 50%
    12:00 +33°C° 0 mm 1 mps 760 mmHg 45%
    13:00 +33°C° 0 mm 1 mps 760 mmHg 44%
    14:00 +33°C° 0 mm 1 mps 760 mmHg 43%
    15:00 +33°C° 0 mm 1 mps 759 mmHg 41%
    16:00 +32°C° 0 mm 1 mps 759 mmHg 46%
    17:00 +30°C° 0 mm 1 mps 759 mmHg 50%
    18:00 +29°C° 0 mm 1 mps 759 mmHg 55%
    19:00 +28°C° 0 mm 1 mps 759 mmHg 55%
    20:00 +27°C° 0 mm 1 mps 759 mmHg 56%
    21:00 +26°C° 0 mm 1 mps 759 mmHg 57%
    22:00 +25°C° 0 mm 1 mps 759 mmHg 58%
    23:00 +25°C° 0 mm 1 mps 759 mmHg 59%

    Day after tomorrow, 28 August, Wednesday

    Time Temperature Precipitation Wind Pressure Humidity
    00:00 +24°C° 0 mm 1 mps 759 mmHg 61%
    01:00 +23°C° 0 mm 1 mps 759 mmHg 62%
    02:00 +23°C° 0 mm 2 mps 759 mmHg 63%
    03:00 +21°C° 0 mm 2 mps 759 mmHg 64%
    04:00 +23°C° 0 mm 2 mps 759 mmHg 65%
    05:00 +23°C° 0 mm 2 mps 759 mmHg 65%
    06:00 +23°C° 0 mm 2 mps 759 mmHg 66%
    07:00 +24°C° 0 mm 2 mps 759 mmHg 62%
    08:00 +26°C° 0 mm 2 mps 759 mmHg 58%
    09:00 +28°C° 0 mm 3 mps 759 mmHg 54%
    10:00 +29°C° 0 mm 3 mps 759 mmHg 52%
    11:00 +30°C° 0 mm 3 mps 759 mmHg 49%
    12:00 +31°C° 0 mm 3 mps 759 mmHg 46%
    13:00 +31°C° 0 mm 3 mps 759 mmHg 47%
    14:00 +31°C° 0 mm 3 mps 759 mmHg 49%
    15:00 +30°C° 0 mm 3 mps 759 mmHg 50%
    16:00 +29°C° 0 mm 2 mps 759 mmHg 55%
    17:00 +28°C° 0 mm 2 mps 759 mmHg 61%
    18:00 +26°C° 0 mm 2 mps 759 mmHg 66%
    19:00 +25°C° 0.1 mm 1 mps 759 mmHg 66%
    20:00 +25°C° 0.1 mm 1 mps 759 mmHg 66%
    21:00 +24°C° 0.1 mm 1 mps 759 mmHg 65%
    22:00 +23°C° 1.7 mm 2 mps 759 mmHg 74%
    23:00 +21°C° 1.7 mm 2 mps 759 mmHg 83%

    29 August, Thursday

    Time Temperature Precipitation Wind Pressure Humidity
    00:00 +20°C° 1.7 mm 2 mps 760 mmHg 91%
    01:00 +20°C° 1 mm 2 mps 760 mmHg 92%
    02:00 +20°C° 1 mm 2 mps 760 mmHg 93%
    03:00 +21°C° 1 mm 1 mps 760 mmHg 94%
    04:00 +21°C° 0.6 mm 1 mps 760 mmHg 94%
    05:00 +20°C° 0.6 mm 2 mps 760 mmHg 94%
    06:00 +20°C° 0.6 mm 2 mps 760 mmHg 94%
    07:00 +20°C° 0.1 mm 2 mps 760 mmHg 89%
    08:00 +21°C° 0.1 mm 3 mps 761 mmHg 84%
    09:00 +22°C° 0.1 mm 3 mps 761 mmHg 79%
    10:00 +23°C° 0 mm 4 mps 761 mmHg 73%
    11:00 +23°C° 0 mm 4 mps 762 mmHg 67%
    12:00 +25°C° 0 mm 4 mps 762 mmHg 61%
    13:00 +25°C° 0 mm 4 mps 762 mmHg 62%
    14:00 +25°C° 0 mm 5 mps 762 mmHg 62%
    15:00 +23°C° 0 mm 5 mps 762 mmHg 62%
    16:00 +22°C° 0 mm 4 mps 763 mmHg 65%
    17:00 +21°C° 0 mm 3 mps 763 mmHg 68%
    18:00 +19°C° 0 mm 3 mps 763 mmHg 71%
    19:00 +18°C° 0 mm 2 mps 764 mmHg 73%
    20:00 +17°C° 0 mm 2 mps 764 mmHg 76%
    21:00 +15°C° 0 mm 2 mps 765 mmHg 78%
    22:00 +15°C° 0 mm 1 mps 765 mmHg 81%
    23:00 +14°C° 0 mm 1 mps 765 mmHg 84%

    30 August, Friday

    Time Temperature Precipitation Wind Pressure Humidity
    00:00 +14°C° 0 mm 1 mps 765 mmHg 87%
    01:00 +13°C° 0 mm 0 mps 765 mmHg 88%
    02:00 +12°C° 0 mm 0 mps 765 mmHg 89%
    03:00 +12°C° 0 mm 0 mps 765 mmHg 90%
    04:00 +12°C° 0 mm 0 mps 765 mmHg 89%
    05:00 +13°C° 0 mm 0 mps 765 mmHg 89%
    06:00 +13°C° 0 mm 0 mps 765 mmHg 88%
    07:00 +15°C° 0 mm 0 mps 765 mmHg 79%
    08:00 +17°C° 0 mm 0 mps 765 mmHg 70%
    09:00 +19°C° 0 mm 0 mps 765 mmHg 61%
    10:00 +22°C° 0 mm 1 mps 765 mmHg 55%
    11:00 +23°C° 0 mm 1 mps 765 mmHg 49%
    12:00 +24°C° 0 mm 1 mps 765 mmHg 42%
    13:00 +24°C° 0 mm 1 mps 764 mmHg 41%
    14:00 +24°C° 0 mm 1 mps 764 mmHg 40%
    15:00 +25°C° 0 mm 1 mps 764 mmHg 39%
    16:00 +23°C° 0 mm 1 mps 764 mmHg 44%
    17:00 +22°C° 0 mm 1 mps 763 mmHg 50%
    18:00 +20°C° 0 mm 1 mps 763 mmHg 56%
    19:00 +19°C° 0 mm 1 mps 763 mmHg 56%
    20:00 +19°C° 0 mm 1 mps 763 mmHg 57%
    21:00 +18°C° 0 mm 1 mps 763 mmHg 57%
    22:00 +18°C° 0 mm 1 mps 763 mmHg 58%
    23:00 +16°C° 0 mm 1 mps 762 mmHg 58%

    31 August, Saturday

    Time Temperature Precipitation Wind Pressure Humidity
    00:00 +16°C° 0 mm 1 mps 762 mmHg 59%
    01:00 +16°C° 0 mm 1 mps 761 mmHg 61%
    02:00 +15°C° 0 mm 1 mps 761 mmHg 63%
    03:00 +15°C° 0 mm 1 mps 761 mmHg 64%
    04:00 +15°C° 0 mm 2 mps 761 mmHg 68%
    05:00 +15°C° 0 mm 2 mps 760 mmHg 72%
    06:00 +15°C° 0 mm 2 mps 760 mmHg 76%
    07:00 +17°C° 0 mm 2 mps 760 mmHg 71%
    08:00 +19°C° 0 mm 3 mps 760 mmHg 66%
    09:00 +20°C° 0 mm 4 mps 760 mmHg 60%
    10:00 +21°C° 0 mm 4 mps 760 mmHg 57%
    11:00 +22°C° 0 mm 4 mps 760 mmHg 54%
    12:00 +23°C° 0 mm 4 mps 760 mmHg 51%
    13:00 +23°C° 0 mm 4 mps 759 mmHg 50%
    14:00 +23°C° 0 mm 4 mps 759 mmHg 50%
    15:00 +23°C° 0 mm 4 mps 758 mmHg 49%
    16:00 +22°C° 0 mm 3 mps 758 mmHg 55%
    17:00 +21°C° 0 mm 3 mps 758 mmHg 61%
    18:00 +19°C° 0 mm 3 mps 758 mmHg 67%
    19:00 +18°C° 0 mm 3 mps 758 mmHg 72%
    20:00 +17°C° 0 mm 3 mps 758 mmHg 78%
    21:00 +16°C° 0 mm 2 mps 758 mmHg 83%
    22:00 +16°C° 0 mm 3 mps 758 mmHg 83%
    23:00 +16°C° 0 mm 3 mps 758 mmHg 84%
    Show more